Powrót do katalogu

SL-12 R/B(2)

AktywnyGEO
NORAD 29233·ROCKET BODY·🇷🇺 Russia

Wystrzelony Jun 17, 2006 z Baikonur Cosmodrome

Loading…

TLE

ŚwieżeSource: Space-Track

Epoka: Sep 14, 2026, 13:22 UTC

1 29233U 06022D   26257.55746274  .00000004  00000-0  00000-0 0  9995
2 29233  12.6188  21.7994 0050663  44.1635 346.4256  1.01010297 74677

Śledź SL-12 R/B(2) w czasie rzeczywistym z AllMySat

Download on the App Store